Weather Roundup
Issued by NWS Chicago, IL

Home | Current Version | Previous Version | Text Only | Print | Product List | Glossary Off
Versions: 1 2 3 4 5 6 7 8 9 10 11 12 13 14 15 16 17 18 19 20 21 22 23 24 25 26 27 28 29 30 31 32 33 34 35 36 37 38 39 40 41 42 43 44 45 46 47 48 49 50

000
NZUS59 KLOT 271403
HRRLOT

CHICAGO AREA WEATHER ROUNDUP
NATIONAL WEATHER SERVICE CHICAGO/ROMEOVILLE IL
900 AM CDT MON MAR 27 2017

NOTE: "FAIR" INDICATES FEW OR NO CLOUDS BELOW 12,000 FEET WITH NO
SIGNIFICANT WEATHER AND/OR OBSTRUCTIONS TO VISIBILITY.

* THESE STATIONS ARE NOT UNDER NWS QUALITY CONTROL. THEY ALSO MAY NOT
  REPORT WEATHER SUCH AS PRECIPITATION OR FOG.

ILZ005-006-012>014-019>023-271500-
NORTHEAST ILLINOIS

CITY           SKY/WX    TMP DP  RH WIND       PRES   REMARKS
OHARE          DRIZZLE   48  45  89 NE7       29.93R
MIDWAY         CLOUDY    50  48  93 CALM      29.93S
AURORA         CLOUDY    49  47  93 N5        29.94R FOG
LANSING*       CLOUDY    50  49  96 NW5       29.94S
JOLIET*        CLOUDY    51  49  93 CALM      29.94S
WAUKEGAN       CLOUDY    44  42  93 CALM      29.95R
DUPAGE AIRPORT FOG       48  48 100 N6        29.93R VSB 1/2
WHEELING       CLOUDY    47  44  90 NE3       29.95R
MORRIS*        CLOUDY    49  46  90 CALM      29.93S
$$

WIZ051-052-058>065-066-070>072-271500-
SOUTHEAST WISCONSIN

CITY           SKY/WX    TMP DP  RH WIND       PRES   REMARKS
MILWAUKEE      CLOUDY    44  40  85 W3        29.94S
KENOSHA*       CLOUDY    44  40  85 CALM      29.95R
RACINE*        CLOUDY    43  39  86 NW3       29.97R
WAUKESHA       CLOUDY    39  39 100 NW3       29.95R FOG
$$

INZ001>003-010>013-019-020-271500-
NORTHWEST INDIANA

CITY           SKY/WX    TMP DP  RH WIND       PRES   REMARKS
GARY*          CLOUDY    52  46  82 CALM      29.95S
MICHIGAN CITY* NOT AVBL
RENSSELAER*    NOT AVBL
VALPARAISO     CLOUDY    51  49  92 NW3       29.94F
$$

LMZ740>746-271500-
SOUTHERN LAKE MICHIGAN

STATION/POSITION TIME  SKY/WX   TEMP WIND        PRES    VSBY
                                AIR  DIR/SP/G
                 (UTC)          (F)  (DEG/KT/KT) (MB)    (MI)
HARRISON CRIB    1340            40   40/  5/  6   N/A
BURNHAM HARBOR   1400            41  360/  5       N/A
CALUMET HARBOR   1330            43  350/  5/  5 1013.4R
BURNS HARBOR     1240            48  260/  5/  7 1014.6
MICHIGAN CITY    1340            45  300/  6/  6   N/A
$$

ABBREVIATIONS USED IN REMARKS
   TC - TEMPERATURE IN CELSIUS
  WCI - WIND CHILL INDEX
   HX - HEAT INDEX
  VSB - VISIBILITY
$$




USA.gov is the U.S. government's official web portal to all federal, state and local government web resources and services.